Location: Kermapucano
(48.0667°N, 3.3000°W)
Time: 20:30:34
(UTC+00:00)

Meteor PRIRODA - Pass Details

Date: 29 November 2020
Orbit: 489 x 510 km, 97.6° (Epoch: 27 January)

Event Time Altitude Azimuth Distance (km) Brightness Sun altitude
Rises 06:03:38 0° 8° (N) 2,634 7.2 -15.5°
Reaches altitude 10° 06:05:46 10° 3° (N) 1,744 6.2 -15.2°
Maximum altitude 06:09:24 48° 288° (WNW) 675 3.8 -14.6°
Drops below altitude 10° 06:13:00 10° 213° (SSW) 1,730 6.2 -14.0°
Sets 06:15:07 0° 208° (SSW) 2,610 7.2 -13.7°
